Regional Weather Roundup
Issued by NWS

Home | Current Version | Previous Version | Graphics & Text | Print | Product List | Glossary On
Versions: 1 2 3 4 5 6 7 8 9 10 11 12 13 14 15 16 17 18 19 20 21 22 23 24 25 26 27 28 29 30 31 32 33 34 35 36 37 38 39 40 41 42 43 44 45 46 47 48 49 50
000
ASUS45 KTFX 152110
RWRMT
MONTANA REGIONAL WEATHER ROUNDUP
NATIONAL WEATHER SERVICE GREAT FALLS MT
200 PM MST FRI DEC 15 2017

NOTE: "FAIR" INDICATES FEW OR NO CLOUDS BELOW 12000 FEET WITH NO
SIGNIFICANT WEATHER AND/OR OBSTRUCTIONS TO VISIBILITY.

MTZ001>007-043-152200-
WEST OF THE DIVIDE

CITY           SKY/WX    TMP DP  RH WIND       PRES   REMARKS
KALISPELL      SNOW      29  28  96 CALM      29.95F VSB 1/4
MISSOULA       CLOUDY    27  25  92 NW3       29.96F FOG
BUTTE          FAIR      27  19  72 VRB5      29.89F
MULLAN PASS    SNOW      24  23  96 NW5       29.90F VSB 1/4
ANACONDA         N/A     43  18  36 W7        29.84F
DEER LODGE       N/A     18  16  93 W5        29.89F VSB 1/2
EUREKA           N/A     30  27  86 MISG      29.94F
HAMILTON         N/A     25  25 100 CALM      29.92F
LIBBY            N/A     28  28 100 CALM      29.96S
PLAINS           N/A     29  24  81 CALM      30.01F VSB 0
RONAN            N/A     27  24  88 CALM      30.00F
$$

MTZ008-052>055-152200-
SOUTHWEST MONTANA

CITY           SKY/WX    TMP DP  RH WIND       PRES   REMARKS
BOZEMAN        FAIR      22  18  85 E3        29.90F
DILLON         FAIR      35  23  61 S6        29.93F WCI  30
W YELLOWSTONE  CLOUDY    27  21  80 SW9G17    30.08F WCI  17
ENNIS          CLOUDY    34  25  69 S30G41    30.00F WCI  20
THREE FORKS      N/A     21  18  88 CALM      29.89F
TWIN BRIDGES     N/A     35  21  57 CALM      29.93F
$$

MTZ009-010-012-014-046-048-049-054-152200-
EAST SLOPES AND CENTRAL MONTANA

CITY           SKY/WX    TMP DP  RH WIND       PRES   REMARKS
CUT BANK       PTSUNNY   47  24  40 W30G38    29.68F
GREAT FALLS    FAIR      47  15  27 SW28G39   29.73F
MALMSTROM AFB  FAIR      49  15  26 SW30G41   29.72F
HELENA         FAIR      26  23  88 N3        29.87F
BOWMANS CRNR   FAIR      43  18  36 S17G25    29.75S
CHOTEAU          N/A     52  23  32 W16G30    29.76F
FAIRFIELD      FAIR      55  21  27 W30G38    29.70F
POWER          FAIR      46  17  31 S22       29.70F
RAYNESFORD     PTSUNNY   53  18  25 W29G43    29.72F
ULM            PTSUNNY   48  15  27 SW21      29.75F
$$

MTZ011-013-016-021-045-047-050-051-152200-
NORTH CENTRAL MONTANA

CITY           SKY/WX    TMP DP  RH WIND       PRES   REMARKS
HAVRE          FAIR      50  21  32 SW20      29.64F
LEWISTOWN      FAIR      45  23  42 W12       29.69F
N BAR RANCH    FAIR      52  14  22 N6        29.69F
CHINOOK          N/A     54  19  26 W22G32    29.60F
DENTON         PTSUNNY   54  20  25 MISG      29.64F
GEYSER         PTSUNNY   52  19  28 W32G41    29.65F
GRASS RANGE    FAIR      52  17  25 W17       29.62F
STANFORD       FAIR      53  19  26 W39G49    29.64F
WINIFRED       PTSUNNY   53  18  25 W16       29.65F
$$

MTZ017>020-022>027-061-062-152200-
NORTHEAST MONTANA

CITY           SKY/WX    TMP DP  RH WIND       PRES   REMARKS
GLASGOW        FAIR      41  24  51 S5        29.59F
GLENDIVE       FAIR      48  20  32 SW8       29.62S
JORDAN           N/A     49  19  30 W10       29.63F
SIDNEY         PTSUNNY   48  22  35 W18       29.55F
WOLF POINT     FAIR      44  23  43 W8        29.59F
MALTA          SUNNY     52  23  32 NW16G29   29.59F
PLENTYWOOD       N/A     45  27  49 W10       29.53F
POPLAR           N/A     43  21  42 W16       29.58F
SCOBEY           N/A     46  26  46 W10       29.56F
$$

MTZ028>42-056>058-152200-
SOUTHCENTRAL AND SOUTHEAST MONTANA

CITY           SKY/WX    TMP DP  RH WIND       PRES   REMARKS
BAKER          FAIR      43  27  53 W13       29.63F
BILLINGS       CLOUDY    45  16  31 SW20G25   29.74F
LIVINGSTON     FAIR      45  22  40 SW52G63   29.77F
MILES CITY     FAIR      50  20  30 W10       29.65F
BIG TIMBER     SUNNY     50  14  23 W28G41    29.80F
EKALAKA          N/A     43  19  38 SW13      29.67
FORSYTH          N/A     52  18  25 W9G17     29.66F
LAUREL           N/A     46  14  27 SW18G25   29.73F
$$

REGIONAL REPORTS...DAKOTAS

CITY           SKY/WX    TMP DP  RH WIND       PRES   REMARKS
WILLISTON      MOSUNNY   39  23  52 NW5       29.56S
MINOT          CLOUDY    40  26  57 SW6       29.52F
DICKINSON      FAIR      45  23  42 W15       29.56F
BEACH          FAIR      43  23  45 W14       29.63S
CROSBY         FAIR      43  27  52 W12       29.51F
TIOGA          FAIR      39  25  56 W16       29.53S WCI  30
WATFORD CITY   FAIR      43  23  45 W14G21    29.53F
BISMARCK       FAIR      44  25  47 W7        29.58F
GRAND FORKS    LGT SNOW  22  19  89 S13       29.67F FOG     WCI  10
FARGO          FAIR      27  23  85 S12       29.69F WCI  17
BUFFALO SD       N/A     47  22  37 W17       29.58F
RAPID CITY     FAIR      56  16  20 E3        29.70F
$$

REGIONAL REPORTS...WYOMING/IDAHO/WASHINGTON

CITY           SKY/WX    TMP DP  RH WIND       PRES   REMARKS
GILLETTE       FAIR      50  18  28 SW17      29.74F
SHERIDAN       FAIR      47  24  40 N3        29.72F
BUFFALO WY     FAIR      55  13  18 SE8       29.76F
CODY           FAIR      51  11  20 W18G33    29.84F
YELLOWSTONE LA   N/A     25  21  85 CALM      30.09F
IDAHO FALLS    FAIR      27  23  85 NE6       30.17F WCI  20
SALMON         FAIR      28  21  75 NW3       30.11F
BOISE          CLOUDY    28  22  78 W3        30.21F
SPOKANE        HVY SNOW  26  26 100 SW8       30.07F VSB 1/4 WCI  18
$$

REGIONAL REPORTS...ALBERTA

CITY           SKY/WX    TMP DP  RH WIND       PRES   REMARKS
EDMONTON       SUNNY     39  21  48 NW12G17   29.66R WCI  32
CALGARY        PTSUNNY   39  30  70 N9        29.71S
LETHBRIDGE     CLOUDY    45  28  53 NE10      29.71S
MEDICINE HAT   LGT RAIN  43  30  61 NW18      29.69R
$$

REGIONAL REPORTS...SASKATCHEWAN

CITY           SKY/WX    TMP DP  RH WIND       PRES   REMARKS
SWIFT CURRENT  CLOUDY    39  27  60 W13G18    29.58R WCI  32
REGINA         CLOUDY    39  32  75 NW15      29.47F WCI  31
SASKATOON      CLOUDY    37  32  81 W13       29.49S WCI  29
$$



USA.gov is the U.S. government's official web portal to all federal, state and local government web resources and services.